Погода в Нижнеангарске

Поиск расширенной информации на нашем сайте:

Полезная информация:

Новости сайта



02.01.2020
Опубликован Долгосрочный прогноз погоды по городам России и ближнего зарубежья на январь 2020 года.
Карты: Прогноз на январь и февраль 2020 года, Сравнение прогнозируемой аномалии приземной температуры воздуха на январь 2020 года по разным моделям.




Погода в Нижнеангарске - сегодня

Время (UTC), дата Ветер
(°,м/с) 
Видим.   Явления Облачность Т
(°С)
Тd
(°С)
f(%) Тe
(°С)
Pmin
(гПа)
dP
(гПа)
Po
(мм)
O2
(г/м3)
Тmin Tmax R s Состояние
почвы
21 23.11.20 330 (СЗ) н/о    5/0 средняя, верхняя 
[Ac lent|Ci fib]
-4.5 -11.8 57 -6  1028.4  1.2  726  299           
00 24.11.20 310 (СЗ) 20000 м    6/5 1000 м средняя 
[Sc|Ac trans]
-7 -11.2 72 -8  1030.4  1.4  727  302  -7.5      13  равномерный
сухой снег
100% 
03 24.11.20 320 (СЗ) 20000 м    8/5 1000 м средняя 
[Sc|Ac trans]
-4.7 -11.6 58 -4  1032  1.9  729  300  -8.8         
06 24.11.20 350 (С) 20000 м    4/3 1000 м средняя 
[Sc|Ac trans]
-4.9 -15.6 43 -6  1033.6  1.5  730  301           
09 24.11.20 020 (С) н/о    3/3 1000 м 
[Sc]
-8.1 -17.9 45 -8  1035.4  731  305           
12 24.11.20 320 (СЗ) н/о    3/3 1000 м 
[Sc]
-11.2 -18.2 56 -13  1037.8  1.6  732  309    -3.6       
15 24.11.20 320 (СЗ) н/о    1/1 1000 м 
[Sc]
-12.1 -18.5 59 -14  1039.1  732  310           
18 24.11.20 320 (СЗ) н/о    ясно 
-13.1 -18.3 65 -15  1040.2  0.8  733  312           
21 24.11.20 320 (СЗ) н/о    ясно 
-14.2 -18.3 71 -14  1041  0.5  733  313           
00 25.11.20 270 (З) 20000 м    1/0 средняя 
[Ac lent]
-17 -20 78 -17  1042.7  0.9  734  317  -17.4      13  равномерный
сухой снег
100% 
03 25.11.20 230 (ЮЗ) 20000 м    6/0 средняя, верхняя 
[Ac lent|Ci fib]
-9.9 -16.5 59 -10  1041.7  0.7  735  308  -18         
06 25.11.20 тихо ()   20000 м    8/0 верхняя 
[Ci fib]
-10.4 -16.5 61 -10  1041.5  -0.3  734  309           
09 25.11.20 040 (СВ) н/о    10/3 1000 м верхняя 
[Sc|Ci fib]
-12.7 -16.3 74 -15  1042.4  0.4  735  312           
12 25.11.20 310 (СЗ) н/о    4/4 1000 м 
[Sc]
-12.6 -16.4 73 -13  1043  0.5  735  312    -8.2       
15 25.11.20 280 (З) н/о    5/3 1000 м верхняя 
[Sc|Ci fib]
-13.3 -16.5 77 -13  1043.2  735  313           
18 25.11.20 030 (СВ) н/о    10/5 1000 м верхняя 
[Sc|Ci fib]
-13.4 -15.8 82 -13  1043.3  0.1  735  313           
21 25.11.20 тихо ()   н/о    4/1 1000 м верхняя 
[Sc|Ci fib]
-14.2 -16.3 84 -14  1043.2  -0.2  735  314           
00 26.11.20 320 (СЗ) н/о    4/3 1000 м верхняя 
[Sc|Ci fib]
-14 -16.3 83 -14  1043.7  0.4  735  314  -14.9      13  равномерный
сухой снег
100% 
03 26.11.20 080 (В) 20000 м    10/4 1000 м верхняя 
[Sc|Ci fib]
-11.4 -15.4 72 -11  1043.5  0.4  736  311           
06 26.11.20 120 (ЮВ) 20000 м    10/4 1000 м верхняя 
[Sc|Ci fib]
-9.5 -14.6 66 -9  1042.5  -0.4  735  308           
09 26.11.20 тихо ()   н/о    10/5 1000 м верхняя 
[Sc|Ci fib]
-10.5 -14.7 71 -11  1043.4  0.6  736  310           
12 26.11.20 280 (З) н/о    6/3 1000 м верхняя 
[Sc|Ci fib]
-13.4 -16.7 76 -13  1045.3  1.1  737  313    -7.8       
15 26.11.20 330 (СЗ) н/о    3/0 верхняя 
[Ci fib]
-14.8 -18 77 -15  1045.8  0.1  737  315           
18 26.11.20 270 (З) н/о    3/0 верхняя 
[Ci fib]
-16 -18.7 80 -16  1046.5  0.4  737  317           
21 26.11.20 тихо ()   н/о    ясно 
-19.4 -20.9 88 -19  1047.1  -0.2  737  321           
Время (UTC), дата Ветер
(°,м/с) 
Видим.   Явления Облачность Т
(°С)
Тd
(°С)
f(%) Тe
(°С)
Pmin
(гПа)
dP
(гПа)
Po
(мм)
O2
(г/м3)
Тmin Tmax R s Состояние
почвы

Для получения пояснительной информации подведите курсор к названию столбца.

ПОГОДА в Нижнеангарске - архив

Всё, что Вы хотите узнать о погоде в Нижнеангарске - удобно и подробно!

Выберите нужную дату (начиная с 1 января 2019* года) и нажмите кнопку "Найти".
Будут отображены архивные сводки погоды по пункту Нижнеангарск, начиная с указанной даты.


Отображать данные в формате CSV (для использования в таблицах Excel)


Внимание! Наш архив погоды предназначен исключительно для личного некоммерческого использования в познавательных целях. Если Вам необходимы официальные справки о состоянии погоды (для производственных, юридических, коммерческих и т.п. целей), обращайтесь в органы Росгидромета.

*Примечание: данная дата относится к архиву по метеостанциям СССР (Россия, СНГ, Балтия).
Архив по метеостанциям Зарубежной Европы и Азии (кроме Китая) хранится 10 дней, по другим регионам земного шара (Китай, Африка, Америка, Австралия, Океания) - 1 день.

Нижнеангарск - район местоположения метеостанции


Название, широта, долгота, высота метеостанции:
Нижнеангарск 55.8°ш. 109.6°д. 487 м над ур. моря [Российская Федерация]

Дополнительная информация

В oтличие oт бoльшинства пoгoдных сайтoв мы публикуем пoдрoбную метеoинфoрмацию в детальнoм прoфессиoнальнoм фoрмате.

Характеристики температуры и влажнoсти вoздуха измеряются на высoте 2 м в тени вдали oт зданий и деревьев.
Скoрoсть ветра измеряется на высoте 10 м (на урoвне рoста челoвека скoрoсть ветра ниже в 1.5-2 раза). Если метеoстанция нахoдится в гoрoде или в лесу, тo скoрoсть ветра занижена на 2-4 м/с пo сравнению с oткрытым местoм. Скoрoсть ветра над акватoриями крупных рек и oзёр, а также на вершинах хoлмoв на 2-5 м/с выше, чем в oбычных услoвиях.
Атмoсфернoе давление в разных тoчках местнoсти мoжет значительнo oтличаться oт давления на метеoстанции, в зависимoсти oт услoвий рельефа (при пoдъёме на 10 м давление пoнижается примернo на 1 мм рт.ст.).